This is the latest recevied weather packets stored in our database for station/object R6DH-11. If no packets are shown the sender has not sent any weather packets the latest 10 day(s).
| Time | Temp. | Humidity | Pressure | Rain* | Wind** | Luminosity | Snow |
|---|---|---|---|---|---|---|---|
| 1777414924 | 3.89° C | 67% | 1017.6 hPa | - | - | - | - |
| 1777414023 | 3.89° C | 65% | 1017.3 hPa | - | - | - | - |
| 1777413123 | 2.78° C | 67% | 1017.7 hPa | - | - | - | - |
| 1777412223 | 3.33° C | 64% | 1017.4 hPa | - | - | - | - |
| 1777411323 | 3.89° C | 65% | 1017.6 hPa | - | - | - | - |
| 1777410423 | 3.89° C | 65% | 1017.7 hPa | - | - | - | - |
| 1777409523 | 3.89° C | 65% | 1017.8 hPa | - | - | - | - |
| 1777408623 | 3.89° C | 66% | 1017.7 hPa | - | - | - | - |
| 1777407722 | 5° C | 64% | 1017.7 hPa | - | - | - | - |
| 1777406822 | 5° C | 63% | 1017.6 hPa | - | - | - | - |
| 1777405922 | 5° C | 64% | 1017.7 hPa | - | - | - | - |
| 1777405022 | 5.56° C | 64% | 1017.7 hPa | - | - | - | - |
| 1777404125 | 6.11° C | 60% | 1017.7 hPa | - | - | - | - |
| 1777403224 | 5.56° C | 62% | 1017.7 hPa | - | - | - | - |
| 1777402324 | 6.11° C | 61% | 1017.6 hPa | - | - | - | - |
| 1777401424 | 7.22° C | 59% | 1017.6 hPa | - | - | - | - |
| 1777400524 | 7.22° C | 59% | 1017.6 hPa | - | - | - | - |
| 1777399624 | 7.78° C | 57% | 1017.6 hPa | - | - | - | - |
| 1777398724 | 8.33° C | 56% | 1017.5 hPa | - | - | - | - |
| 1777397824 | 7.78° C | 55% | 1017.4 hPa | - | - | - | - |
| 1777396923 | 8.33° C | 55% | 1017.4 hPa | - | - | - | - |
| 1777396023 | 8.89° C | 54% | 1017.3 hPa | - | - | - | - |
| 1777395123 | 10° C | 48% | 1017.1 hPa | - | - | - | - |
| 1777394223 | 11.11° C | 42% | 1017 hPa | - | - | - | - |
| 1777393323 | 11.67° C | 41% | 1016.9 hPa | - | - | - | - |
* Rain since midnight (hover to see other rain measurements)
** Current wind speed in m/s (hover to see current wind gust speed)